| time (UTC) | temp F | wind direction | speed MPH | gust MPH | rain 1hr in | rain 24hr in | rain mn in | humidity % | barometer mb |
| 20260502223932 | 69 | 91 | 2.0 | 5.0 | 0.00 | 0.00 | 0.00 | 40 | 1016.9 |
| 20260502223443 | 70 | 69 | 1.0 | 5.0 | 0.00 | 0.00 | 0.00 | 42 | 1016.9 |
| 20260502223030 | 70 | 15 | 1.0 | 4.0 | 0.00 | 0.00 | 0.00 | 40 | 1016.6 |
| 20260502222932 | 71 | 43 | 1.0 | 4.0 | 0.00 | 0.00 | 0.00 | 40 | 1016.9 |
| 20260502222442 | 71 | 348 | 0.0 | 3.0 | 0.00 | 0.00 | 0.00 | 43 | 1016.9 |
| 20260502221925 | 71 | 48 | 0.0 | 9.0 | 0.00 | 0.00 | 0.00 | 42 | 1016.8 |
| 20260502221516 | 70 | 70 | 1.0 | 9.0 | 0.00 | 0.00 | 0.00 | 40 | 1016.5 |
| 20260502221435 | 71 | 55 | 3.0 | 9.0 | 0.00 | 0.00 | 0.00 | 38 | 1016.8 |
| 20260502220946 | 71 | 249 | 1.0 | 6.0 | 0.00 | 0.00 | 0.00 | 41 | 1016.8 |
| 20260502220025 | 71 | 23 | 3.0 | 6.0 | 0.00 | 0.00 | 0.00 | 41 | 1016.4 |
| 20260502215939 | 71 | 50 | 3.0 | 6.0 | 0.00 | 0.00 | 0.00 | 39 | 1016.7 |
| 20260502215421 | 71 | 53 | 3.0 | 6.0 | 0.00 | 0.00 | 0.00 | 40 | 1016.8 |
| 20260502214933 | 72 | 65 | 1.0 | 5.0 | 0.00 | 0.00 | 0.00 | 39 | 1016.8 |
| 20260502214529 | 71 | 44 | 0.0 | 8.0 | 0.00 | 0.00 | 0.00 | 43 | 1016.4 |
| 20260502214440 | 72 | 1 | 1.0 | 8.0 | 0.00 | 0.00 | 0.00 | 42 | 1016.8 |
| 20260502213922 | 72 | 330 | 3.0 | 8.0 | 0.00 | 0.00 | 0.00 | 39 | 1016.7 |
| 20260502213434 | 72 | 75 | 1.0 | 5.0 | 0.00 | 0.00 | 0.00 | 43 | 1016.9 |
| 20260502213038 | 71 | 246 | 0.0 | 5.0 | 0.00 | 0.00 | 0.00 | 44 | 1016.5 |
| 20260502212944 | 71 | 205 | 0.0 | 5.0 | 0.00 | 0.00 | 0.00 | 44 | 1016.8 |
| 20260502212427 | 71 | 69 | 2.0 | 5.0 | 0.00 | 0.00 | 0.00 | 46 | 1017.0 |
| 20260502211939 | 70 | 67 | 1.0 | 3.0 | 0.00 | 0.00 | 0.00 | 43 | 1017.0 |
| 20260502211553 | 68 | 63 | 0.0 | 4.0 | 0.00 | 0.00 | 0.00 | 45 | 1016.6 |
| 20260502211445 | 68 | 58 | 1.0 | 4.0 | 0.00 | 0.00 | 0.00 | 45 | 1017.0 |
| 20260502210927 | 68 | 57 | 1.0 | 4.0 | 0.00 | 0.00 | 0.00 | 45 | 1017.0 |
| 20260502210439 | 68 | 56 | 2.0 | 5.0 | 0.00 | 0.00 | 0.00 | 45 | 1017.0 |
| 20260502210055 | 67 | 62 | 1.0 | 5.0 | 0.00 | 0.00 | 0.00 | 45 | 1016.7 |
| 20260502205940 | 68 | 65 | 2.0 | 5.0 | 0.00 | 0.00 | 0.00 | 46 | 1017.1 |
| 20260502205431 | 69 | 42 | 1.0 | 4.0 | 0.00 | 0.00 | 0.00 | 45 | 1017.1 |
| 20260502204942 | 69 | 91 | 1.0 | 5.0 | 0.00 | 0.00 | 0.00 | 42 | 1017.2 |
| 20260502204615 | 69 | 39 | 1.0 | 5.0 | 0.00 | 0.00 | 0.00 | 42 | 1016.9 |
| 20260502204442 | 70 | 73 | 2.0 | 5.0 | 0.00 | 0.00 | 0.00 | 42 | 1017.3 |
| 20260502203933 | 70 | 53 | 2.0 | 5.0 | 0.00 | 0.00 | 0.00 | 42 | 1017.2 |
| 20260502203424 | 71 | 83 | 3.0 | 6.0 | 0.00 | 0.00 | 0.00 | 42 | 1017.3 |
| 20260502203048 | 71 | 59 | 2.0 | 6.0 | 0.00 | 0.00 | 0.00 | 42 | 1016.9 |
| 20260502202925 | 72 | 46 | 3.0 | 6.0 | 0.00 | 0.00 | 0.00 | 39 | 1017.4 |
| 20260502202456 | 72 | 240 | 1.0 | 4.0 | 0.00 | 0.00 | 0.00 | 45 | 1017.4 |
| 20260502201927 | 71 | 287 | 1.0 | 5.0 | 0.00 | 0.00 | 0.00 | 42 | 1017.5 |
| 20260502201534 | 70 | 294 | 0.0 | 5.0 | 0.00 | 0.00 | 0.00 | 44 | 1017.2 |
| 20260502201437 | 70 | 192 | 2.0 | 5.0 | 0.00 | 0.00 | 0.00 | 44 | 1017.5 |
| 20260502200929 | 70 | 62 | 2.0 | 4.0 | 0.00 | 0.00 | 0.00 | 45 | 1017.6 |
| 20260502200440 | 71 | 56 | 1.0 | 4.0 | 0.00 | 0.00 | 0.00 | 43 | 1017.6 |
| 20260502200055 | 70 | 56 | 2.0 | 4.0 | 0.00 | 0.00 | 0.00 | 45 | 1017.2 |
| 20260502195920 | 71 | 68 | 1.0 | 8.0 | 0.00 | 0.00 | 0.00 | 44 | 1017.6 |
| 20260502195452 | 70 | 288 | 1.0 | 8.0 | 0.00 | 0.00 | 0.00 | 41 | 1017.7 |
| 20260502194922 | 70 | 60 | 2.0 | 6.0 | 0.00 | 0.00 | 0.00 | 43 | 1017.7 |
| 20260502194537 | 69 | 63 | 2.0 | 5.0 | 0.00 | 0.00 | 0.00 | 47 | 1017.5 |
| 20260502194448 | 70 | 89 | 2.0 | 5.0 | 0.00 | 0.00 | 0.00 | 46 | 1017.7 |
| 20260502193931 | 69 | 58 | 2.0 | 5.0 | 0.00 | 0.00 | 0.00 | 46 | 1017.9 |
| 20260502193423 | 68 | 65 | 2.0 | 5.0 | 0.00 | 0.00 | 0.00 | 49 | 1018.0 |
| 20260502193047 | 67 | 29 | 0.0 | 2.0 | 0.00 | 0.00 | 0.00 | 46 | 1017.7 |
| 20260502192924 | 68 | 62 | 0.0 | 4.0 | 0.00 | 0.00 | 0.00 | 48 | 1018.0 |
| 20260502192506 | 69 | 56 | 1.0 | 5.0 | 0.00 | 0.00 | 0.00 | 47 | 1018.1 |
| 20260502191947 | 70 | 53 | 2.0 | 5.0 | 0.00 | 0.00 | 0.00 | 44 | 1018.0 |
| 20260502191519 | 70 | 56 | 1.0 | 4.0 | 0.00 | 0.00 | 0.00 | 44 | 1017.7 |
| 20260502191435 | 70 | 58 | 1.0 | 4.0 | 0.00 | 0.00 | 0.00 | 44 | 1018.0 |
| 20260502190947 | 68 | 86 | 1.0 | 6.0 | 0.00 | 0.00 | 0.00 | 48 | 1018.1 |
| 20260502190438 | 68 | 34 | 2.0 | 9.0 | 0.00 | 0.00 | 0.00 | 45 | 1018.2 |
| 20260502190042 | 68 | 69 | 3.0 | 9.0 | 0.00 | 0.00 | 0.00 | 42 | 1017.9 |
| 20260502185948 | 69 | 56 | 3.0 | 9.0 | 0.00 | 0.00 | 0.00 | 41 | 1018.2 |
| 20260502185429 | 72 | 283 | 2.0 | 6.0 | 0.00 | 0.00 | 0.00 | 40 | 1018.2 |
| 20260502184940 | 73 | 292 | 1.0 | 6.0 | 0.00 | 0.00 | 0.00 | 42 | 1018.3 |
| 20260502184550 | 73 | 258 | 2.0 | 6.0 | 0.00 | 0.00 | 0.00 | 45 | 1017.9 |
| 20260502184451 | 73 | 122 | 3.0 | 6.0 | 0.00 | 0.00 | 0.00 | 43 | 1018.3 |
| 20260502183927 | 72 | 262 | 1.0 | 5.0 | 0.00 | 0.00 | 0.00 | 45 | 1018.4 |
| 20260502183439 | 70 | 297 | 1.0 | 5.0 | 0.00 | 0.00 | 0.00 | 46 | 1018.3 |
| 20260502183035 | 69 | 70 | 1.0 | 6.0 | 0.00 | 0.00 | 0.00 | 47 | 1018.1 |
| 20260502182948 | 70 | 46 | 1.0 | 6.0 | 0.00 | 0.00 | 0.00 | 46 | 1018.5 |
| 20260502182430 | 69 | 9 | 1.0 | 6.0 | 0.00 | 0.00 | 0.00 | 47 | 1018.6 |
| 20260502170444 | 68 | 214 | 1.0 | 6.0 | 0.00 | 0.00 | 0.00 | 47 | 1019.2 |
| 20260502163940 | 66 | 54 | 2.0 | 6.0 | 0.00 | 0.00 | 0.00 | 49 | 1019.3 |
| 20260502163452 | 66 | 40 | 3.0 | 6.0 | 0.00 | 0.00 | 0.00 | 48 | 1019.3 |
| 20260502163006 | 66 | 245 | 0.0 | 6.0 | 0.00 | 0.00 | 0.00 | 50 | 1019.2 |
| 20260502162932 | 66 | 58 | 1.0 | 6.0 | 0.00 | 0.00 | 0.00 | 49 | 1019.4 |
| 20260502162444 | 66 | 35 | 2.0 | 6.0 | 0.00 | 0.00 | 0.00 | 49 | 1019.4 |
| 20260502161930 | 65 | 63 | 1.0 | 6.0 | 0.00 | 0.00 | 0.00 | 47 | 1019.4 |
| 20260502161558 | 65 | 46 | 1.0 | 7.0 | 0.00 | 0.00 | 0.00 | 48 | 1019.2 |
| 20260502161500 | 65 | 39 | 2.0 | 7.0 | 0.00 | 0.00 | 0.00 | 48 | 1019.4 |
| 20260502160951 | 65 | 55 | 3.0 | 7.0 | 0.00 | 0.00 | 0.00 | 47 | 1019.5 |
| 20260502160432 | 65 | 314 | 4.0 | 7.0 | 0.00 | 0.00 | 0.00 | 47 | 1019.4 |
| 20260502151941 | 63 | 56 | 2.0 | 6.0 | 0.00 | 0.00 | 0.00 | 58 | 1019.5 |
| 20260502151522 | 62 | 268 | 0.0 | 6.0 | 0.00 | 0.00 | 0.00 | 60 | 1019.3 |
| 20260502151430 | 62 | 51 | 2.0 | 6.0 | 0.00 | 0.00 | 0.00 | 58 | 1019.5 |
| 20260502150937 | 62 | 56 | 1.0 | 5.0 | 0.00 | 0.00 | 0.00 | 60 | 1019.4 |
| 20260502150448 | 62 | 56 | 2.0 | 5.0 | 0.00 | 0.00 | 0.00 | 61 | 1019.4 |
| 20260502130446 | 52 | 210 | 0.0 | 0.0 | 0.00 | 0.00 | 0.00 | 74 | 1018.9 |
| 20260502123430 | 52 | 225 | 0.0 | 1.0 | 0.00 | 0.00 | 0.00 | 68 | 1018.4 |
| 20260502123054 | 51 | 225 | 0.0 | 2.0 | 0.00 | 0.00 | 0.00 | 67 | 1018.1 |
| 20260502122940 | 52 | 225 | 0.0 | 3.0 | 0.00 | 0.00 | 0.00 | 68 | 1018.3 |
| 20260502122441 | 51 | 225 | 2.0 | 3.0 | 0.00 | 0.00 | 0.00 | 69 | 1018.2 |
| 20260502121933 | 51 | 202 | 1.0 | 2.0 | 0.00 | 0.00 | 0.00 | 70 | 1018.2 |
| 20260502121553 | 50 | 188 | 1.0 | 2.0 | 0.00 | 0.00 | 0.00 | 72 | 1017.9 |
| 20260502121442 | 51 | 217 | 1.0 | 2.0 | 0.00 | 0.00 | 0.00 | 72 | 1018.1 |
| 20260502120925 | 51 | 146 | 0.0 | 1.0 | 0.00 | 0.00 | 0.00 | 71 | 1018.0 |
| 20260502120437 | 51 | 65 | 0.0 | 1.0 | 0.00 | 0.00 | 0.00 | 71 | 1017.9 |
| 20260502115449 | 51 | 65 | 0.0 | 0.0 | 0.00 | 0.00 | 0.00 | 69 | 1017.9 |
| 20260502114940 | 51 | 65 | 0.0 | 0.0 | 0.00 | 0.00 | 0.00 | 70 | 1017.7 |
| 20260502114528 | 50 | 65 | 0.0 | 1.0 | 0.00 | 0.00 | 0.00 | 69 | 1017.4 |
| 20260502114430 | 51 | 65 | 0.0 | 1.0 | 0.00 | 0.00 | 0.00 | 69 | 1017.6 |
| 20260502113933 | 51 | 65 | 0.0 | 1.0 | 0.00 | 0.00 | 0.00 | 69 | 1017.7 |
| 20260502113425 | 51 | 65 | 0.0 | 0.0 | 0.00 | 0.00 | 0.00 | 69 | 1017.6 |
| 20260502113040 | 51 | 65 | 0.0 | 0.0 | 0.00 | 0.00 | 0.00 | 69 | 1017.4 |
| 20260502112932 | 52 | 65 | 0.0 | 0.0 | 0.00 | 0.00 | 0.00 | 69 | 1017.6 |
| 20260502112432 | 52 | 65 | 0.0 | 0.0 | 0.00 | 0.00 | 0.00 | 69 | 1017.5 |
| 20260502111942 | 52 | 65 | 0.0 | 0.0 | 0.00 | 0.00 | 0.00 | 69 | 1017.5 |
| 20260502111524 | 52 | 65 | 0.0 | 0.0 | 0.00 | 0.00 | 0.00 | 69 | 1017.3 |
| 20260502111432 | 53 | 65 | 0.0 | 0.0 | 0.00 | 0.00 | 0.00 | 69 | 1017.5 |
| 20260502110944 | 53 | 65 | 0.0 | 0.0 | 0.00 | 0.00 | 0.00 | 70 | 1017.4 |
| 20260502110426 | 53 | 65 | 0.0 | 0.0 | 0.00 | 0.00 | 0.00 | 69 | 1017.4 |
| 20260502110008 | 53 | 65 | 0.0 | 0.0 | 0.00 | 0.00 | 0.00 | 68 | 1017.2 |
| 20260502105935 | 54 | 65 | 0.0 | 0.0 | 0.00 | 0.00 | 0.00 | 68 | 1017.3 |
| 20260502105446 | 54 | 65 | 0.0 | 0.0 | 0.00 | 0.00 | 0.00 | 67 | 1017.3 |
| 20260502104928 | 54 | 64 | 0.0 | 0.0 | 0.00 | 0.00 | 0.00 | 67 | 1017.2 |
| 20260502104517 | 53 | 65 | 0.0 | 0.0 | 0.00 | 0.00 | 0.00 | 67 | 1017.0 |
| 20260502104438 | 54 | 65 | 0.0 | 0.0 | 0.00 | 0.00 | 0.00 | 67 | 1017.2 |
| 20260502103950 | 54 | 65 | 0.0 | 0.0 | 0.00 | 0.00 | 0.00 | 66 | 1017.1 |
| 20260502103500 | 54 | 65 | 0.0 | 0.0 | 0.00 | 0.00 | 0.00 | 66 | 1017.1 |
| 20260502103045 | 53 | 65 | 0.0 | 1.0 | 0.00 | 0.00 | 0.00 | 66 | 1016.9 |
| 20260502102949 | 54 | 65 | 0.0 | 1.0 | 0.00 | 0.00 | 0.00 | 66 | 1017.1 |
| 20260502102447 | 54 | 64 | 0.0 | 1.0 | 0.00 | 0.00 | 0.00 | 66 | 1017.1 |
| 20260502101957 | 54 | 65 | 0.0 | 1.0 | 0.00 | 0.00 | 0.00 | 65 | 1017.1 |
| 20260502101511 | 53 | 65 | 0.0 | 1.0 | 0.00 | 0.00 | 0.00 | 66 | 1016.8 |
| 20260502101426 | 54 | 65 | 0.0 | 1.0 | 0.00 | 0.00 | 0.00 | 66 | 1017.0 |
| 20260502100937 | 54 | 65 | 1.0 | 2.0 | 0.00 | 0.00 | 0.00 | 66 | 1016.9 |
| 20260502100448 | 54 | 64 | 1.0 | 2.0 | 0.00 | 0.00 | 0.00 | 67 | 1017.0 |
| 20260502100104 | 53 | 64 | 0.0 | 2.0 | 0.00 | 0.00 | 0.00 | 67 | 1016.8 |
| 20260502091440 | 54 | 38 | 0.0 | 0.0 | 0.00 | 0.00 | 0.00 | 67 | 1016.7 |
| 20260502090943 | 54 | 38 | 0.0 | 0.0 | 0.00 | 0.00 | 0.00 | 66 | 1016.7 |
| 20260502090432 | 54 | 23 | 0.0 | 0.0 | 0.00 | 0.00 | 0.00 | 64 | 1016.7 |
| 20260502080107 | 55 | 43 | 0.0 | 0.0 | 0.00 | 0.00 | 0.00 | 61 | 1016.3 |
| 20260502071438 | 55 | 43 | 1.0 | 2.0 | 0.00 | 0.00 | 0.00 | 67 | 1016.7 |
| 20260502070930 | 56 | 43 | 1.0 | 2.0 | 0.00 | 0.00 | 0.00 | 68 | 1016.7 |
| 20260502070441 | 56 | 43 | 1.0 | 2.0 | 0.00 | 0.00 | 0.00 | 67 | 1016.7 |
| 20260502070002 | 55 | 36 | 1.0 | 2.0 | 0.00 | 0.00 | 0.00 | 67 | 1016.6 |
| 20260502065922 | 56 | 36 | 1.0 | 2.0 | 0.00 | 0.00 | 0.00 | 67 | 1016.8 |
| 20260502065454 | 56 | 36 | 1.0 | 1.0 | 0.00 | 0.00 | 0.00 | 67 | 1016.9 |
| 20260502064926 | 56 | 36 | 1.0 | 2.0 | 0.00 | 0.00 | 0.00 | 67 | 1017.0 |
| 20260502064553 | 55 | 36 | 0.0 | 2.0 | 0.00 | 0.00 | 0.00 | 67 | 1016.7 |
| 20260502064427 | 56 | 36 | 1.0 | 2.0 | 0.00 | 0.00 | 0.00 | 67 | 1017.0 |
| 20260502063938 | 56 | 36 | 1.0 | 2.0 | 0.00 | 0.00 | 0.00 | 67 | 1017.0 |
| 20260502063446 | 56 | 36 | 1.0 | 1.0 | 0.00 | 0.00 | 0.00 | 67 | 1017.0 |
| 20260502063125 | 56 | 34 | 0.0 | 1.0 | 0.00 | 0.00 | 0.00 | 66 | 1016.7 |
| 20260502062937 | 56 | 34 | 1.0 | 1.0 | 0.00 | 0.00 | 0.00 | 66 | 1017.0 |
| 20260502062439 | 56 | 34 | 1.0 | 1.0 | 0.00 | 0.00 | 0.00 | 66 | 1017.0 |
| 20260502061951 | 56 | 34 | 0.0 | 1.0 | 0.00 | 0.00 | 0.00 | 65 | 1017.1 |
| 20260502061528 | 56 | 32 | 0.0 | 0.0 | 0.00 | 0.00 | 0.00 | 64 | 1016.9 |
| 20260502061440 | 56 | 31 | 0.0 | 0.0 | 0.00 | 0.00 | 0.00 | 64 | 1017.1 |
| 20260502060922 | 56 | 31 | 0.0 | 0.0 | 0.00 | 0.00 | 0.00 | 64 | 1017.1 |
| 20260502060434 | 56 | 31 | 0.0 | 0.0 | 0.00 | 0.00 | 0.00 | 64 | 1017.1 |
| 20260502060037 | 56 | 31 | 0.0 | 0.0 | 0.00 | 0.00 | 0.00 | 64 | 1017.0 |
| 20260502055943 | 56 | 31 | 0.0 | 0.0 | 0.00 | 0.00 | 0.00 | 64 | 1017.3 |
| 20260502055456 | 56 | 31 | 0.0 | 0.0 | 0.00 | 0.00 | 0.00 | 64 | 1017.4 |
| 20260502054936 | 56 | 31 | 0.0 | 1.0 | 0.00 | 0.00 | 0.00 | 65 | 1017.2 |
| 20260502054522 | 56 | 31 | 0.0 | 1.0 | 0.00 | 0.00 | 0.00 | 66 | 1017.0 |
| 20260502054426 | 56 | 31 | 0.0 | 1.0 | 0.00 | 0.00 | 0.00 | 66 | 1017.3 |
| 20260502053936 | 56 | 31 | 0.0 | 2.0 | 0.00 | 0.00 | 0.00 | 67 | 1017.2 |
| 20260502053448 | 56 | 34 | 1.0 | 2.0 | 0.00 | 0.00 | 0.00 | 67 | 1017.2 |
| 20260502053012 | 56 | 33 | 0.0 | 1.0 | 0.00 | 0.00 | 0.00 | 65 | 1016.9 |
| 20260502052929 | 56 | 33 | 0.0 | 1.0 | 0.00 | 0.00 | 0.00 | 65 | 1017.1 |
| 20260502052457 | 57 | 33 | 0.0 | 1.0 | 0.00 | 0.00 | 0.00 | 65 | 1017.2 |
| 20260502051948 | 57 | 33 | 0.0 | 1.0 | 0.00 | 0.00 | 0.00 | 64 | 1017.2 |
| 20260502051601 | 57 | 33 | 0.0 | 1.0 | 0.00 | 0.00 | 0.00 | 63 | 1016.9 |
| 20260502051429 | 57 | 33 | 0.0 | 1.0 | 0.00 | 0.00 | 0.00 | 63 | 1017.2 |
| 20260502050941 | 57 | 33 | 0.0 | 1.0 | 0.00 | 0.00 | 0.00 | 62 | 1017.2 |
| 20260502050424 | 57 | 33 | 0.0 | 0.0 | 0.00 | 0.00 | 0.00 | 61 | 1017.1 |
| 20260502050001 | 57 | 33 | 0.0 | 0.0 | 0.00 | 0.00 | 0.00 | 61 | 1016.9 |
| 20260502045928 | 57 | 33 | 0.0 | 0.0 | 0.00 | 0.00 | 0.00 | 61 | 1017.1 |
| 20260502045439 | 57 | 33 | 0.0 | 0.0 | 0.00 | 0.00 | 0.00 | 62 | 1017.1 |
| 20260502044951 | 57 | 33 | 0.0 | 0.0 | 0.00 | 0.00 | 0.00 | 62 | 1017.1 |
| 20260502044551 | 56 | 33 | 0.0 | 0.0 | 0.00 | 0.00 | 0.00 | 62 | 1016.8 |
| 20260502044431 | 57 | 33 | 0.0 | 0.0 | 0.00 | 0.00 | 0.00 | 60 | 1017.1 |
| 20260502043922 | 57 | 33 | 0.0 | 0.0 | 0.00 | 0.00 | 0.00 | 60 | 1017.1 |
| 20260502043434 | 57 | 33 | 0.0 | 0.0 | 0.00 | 0.00 | 0.00 | 64 | 1017.1 |
| 20260502043102 | 57 | 33 | 0.0 | 0.0 | 0.00 | 0.00 | 0.00 | 63 | 1016.8 |
| 20260502042936 | 57 | 32 | 0.0 | 0.0 | 0.00 | 0.00 | 0.00 | 63 | 1017.0 |
| 20260502042427 | 57 | 33 | 0.0 | 0.0 | 0.00 | 0.00 | 0.00 | 63 | 1017.0 |
| 20260502041939 | 57 | 33 | 0.0 | 0.0 | 0.00 | 0.00 | 0.00 | 63 | 1017.1 |
| 20260502041553 | 56 | 33 | 0.0 | 0.0 | 0.00 | 0.00 | 0.00 | 62 | 1016.9 |
| 20260502041449 | 57 | 33 | 0.0 | 0.0 | 0.00 | 0.00 | 0.00 | 62 | 1017.2 |
| 20260502040931 | 56 | 33 | 0.0 | 0.0 | 0.00 | 0.00 | 0.00 | 62 | 1017.1 |
| 20260502040442 | 56 | 33 | 0.0 | 0.0 | 0.00 | 0.00 | 0.00 | 60 | 1017.0 |
| 20260502035923 | 56 | 33 | 0.0 | 0.0 | 0.00 | 0.00 | 0.00 | 61 | 1017.1 |
| 20260502035450 | 56 | 33 | 0.0 | 0.0 | 0.00 | 0.00 | 0.00 | 62 | 1017.1 |
| 20260502034941 | 57 | 33 | 0.0 | 0.0 | 0.00 | 0.00 | 0.00 | 63 | 1017.0 |
| 20260502034542 | 56 | 33 | 0.0 | 0.0 | 0.00 | 0.00 | 0.00 | 64 | 1016.8 |
| 20260502034430 | 57 | 33 | 0.0 | 0.0 | 0.00 | 0.00 | 0.00 | 64 | 1016.9 |
| 20260502033942 | 57 | 33 | 0.0 | 0.0 | 0.00 | 0.00 | 0.00 | 66 | 1016.8 |
| 20260502033425 | 57 | 33 | 0.0 | 1.0 | 0.00 | 0.00 | 0.00 | 66 | 1016.8 |
| 20260502033029 | 57 | 33 | 0.0 | 1.0 | 0.00 | 0.00 | 0.00 | 67 | 1016.5 |
| 20260502032935 | 57 | 33 | 0.0 | 1.0 | 0.00 | 0.00 | 0.00 | 66 | 1016.7 |
| 20260502032437 | 58 | 33 | 0.0 | 1.0 | 0.00 | 0.00 | 0.00 | 65 | 1016.8 |
| 20260502031929 | 58 | 33 | 0.0 | 1.0 | 0.00 | 0.00 | 0.00 | 65 | 1016.8 |
| 20260502031538 | 57 | 33 | 0.0 | 0.0 | 0.00 | 0.00 | 0.00 | 65 | 1016.7 |
| 20260502031437 | 57 | 33 | 0.0 | 0.0 | 0.00 | 0.00 | 0.00 | 65 | 1017.0 |
| 20260502030949 | 57 | 33 | 0.0 | 0.0 | 0.00 | 0.00 | 0.00 | 66 | 1017.0 |
| 20260502030431 | 58 | 33 | 0.0 | 0.0 | 0.00 | 0.00 | 0.00 | 66 | 1016.9 |
| 20260502030025 | 57 | 33 | 0.0 | 0.0 | 0.00 | 0.00 | 0.00 | 65 | 1016.7 |
| 20260502025941 | 58 | 33 | 0.0 | 0.0 | 0.00 | 0.00 | 0.00 | 65 | 1016.8 |
| 20260502025423 | 58 | 33 | 0.0 | 1.0 | 0.00 | 0.00 | 0.00 | 65 | 1016.8 |
| 20260502024935 | 58 | 33 | 0.0 | 1.0 | 0.00 | 0.00 | 0.00 | 65 | 1016.8 |
| 20260502024532 | 57 | 33 | 0.0 | 0.0 | 0.00 | 0.00 | 0.00 | 65 | 1016.6 |
| 20260502024444 | 58 | 33 | 0.0 | 0.0 | 0.00 | 0.00 | 0.00 | 65 | 1016.8 |
| 20260502023927 | 58 | 33 | 0.0 | 1.0 | 0.00 | 0.00 | 0.00 | 67 | 1016.7 |
| 20260502023435 | 58 | 33 | 0.0 | 1.0 | 0.00 | 0.00 | 0.00 | 66 | 1016.6 |
| 20260502023042 | 58 | 33 | 0.0 | 1.0 | 0.00 | 0.00 | 0.00 | 66 | 1016.4 |
| 20260502022945 | 58 | 33 | 1.0 | 1.0 | 0.00 | 0.00 | 0.00 | 66 | 1016.6 |
| 20260502022428 | 58 | 33 | 0.0 | 1.0 | 0.00 | 0.00 | 0.00 | 65 | 1016.6 |
| 20260502022000 | 58 | 33 | 1.0 | 2.0 | 0.00 | 0.00 | 0.00 | 65 | 1016.4 |
| 20260502021530 | 58 | 32 | 0.0 | 2.0 | 0.00 | 0.00 | 0.00 | 64 | 1016.3 |
| 20260502021428 | 59 | 32 | 0.0 | 2.0 | 0.00 | 0.00 | 0.00 | 64 | 1016.5 |
| 20260502020930 | 59 | 27 | 0.0 | 1.0 | 0.00 | 0.00 | 0.00 | 64 | 1016.5 |
| 20260502020441 | 59 | 27 | 0.0 | 1.0 | 0.00 | 0.00 | 0.00 | 63 | 1016.6 |
| 20260502020039 | 58 | 105 | 0.0 | 1.0 | 0.00 | 0.00 | 0.00 | 63 | 1016.3 |
| 20260502015931 | 59 | 105 | 0.0 | 1.0 | 0.00 | 0.00 | 0.00 | 63 | 1016.5 |
| 20260502015433 | 59 | 176 | 0.0 | 2.0 | 0.00 | 0.00 | 0.00 | 63 | 1016.5 |
| 20260502014926 | 59 | 257 | 0.0 | 2.0 | 0.00 | 0.00 | 0.00 | 63 | 1016.5 |
| 20260502014544 | 58 | 238 | 0.0 | 2.0 | 0.00 | 0.00 | 0.00 | 64 | 1016.2 |
| 20260502014426 | 59 | 198 | 1.0 | 2.0 | 0.00 | 0.00 | 0.00 | 64 | 1016.5 |
| 20260502013937 | 59 | 207 | 0.0 | 3.0 | 0.00 | 0.00 | 0.00 | 65 | 1016.5 |
| 20260502013429 | 59 | 48 | 0.0 | 3.0 | 0.00 | 0.00 | 0.00 | 66 | 1016.5 |
| 20260502013050 | 58 | 205 | 0.0 | 2.0 | 0.00 | 0.00 | 0.00 | 66 | 1016.4 |
| 20260502012929 | 59 | 155 | 0.0 | 2.0 | 0.00 | 0.00 | 0.00 | 66 | 1016.6 |
| 20260502012441 | 59 | 264 | 0.0 | 3.0 | 0.00 | 0.00 | 0.00 | 67 | 1016.5 |
| 20260502011933 | 59 | 191 | 0.0 | 3.0 | 0.00 | 0.00 | 0.00 | 67 | 1016.5 |
| 20260502011602 | 59 | 241 | 0.0 | 2.0 | 0.00 | 0.00 | 0.00 | 68 | 1016.2 |
| 20260502011434 | 59 | 70 | 1.0 | 2.0 | 0.00 | 0.00 | 0.00 | 68 | 1016.4 |
| 20260502010926 | 59 | 164 | 1.0 | 3.0 | 0.00 | 0.00 | 0.00 | 68 | 1016.2 |
| 20260502010427 | 60 | 245 | 1.0 | 3.0 | 0.00 | 0.00 | 0.00 | 68 | 1016.3 |
| 20260502010106 | 59 | 224 | 1.0 | 3.0 | 0.00 | 0.00 | 0.00 | 68 | 1016.0 |
| 20260502010003 | 60 | 217 | 1.0 | 3.0 | 0.00 | 0.00 | 0.00 | 68 | 1016.1 |
| 20260502005424 | 60 | 141 | 0.0 | 3.0 | 0.00 | 0.00 | 0.00 | 67 | 1016.1 |
| 20260502004935 | 60 | 227 | 0.0 | 6.0 | 0.00 | 0.00 | 0.00 | 68 | 1016.0 |
| 20260502004553 | 60 | 234 | 2.0 | 6.0 | 0.00 | 0.00 | 0.00 | 66 | 1015.6 |
| 20260502004505 | 60 | 227 | 2.0 | 6.0 | 0.00 | 0.00 | 0.00 | 67 | 1015.9 |
| 20260502003927 | 60 | 229 | 1.0 | 6.0 | 0.00 | 0.00 | 0.00 | 67 | 1015.8 |
| 20260502003438 | 61 | 245 | 2.0 | 6.0 | 0.00 | 0.00 | 0.00 | 67 | 1015.7 |
| 20260502003019 | 60 | 252 | 1.0 | 5.0 | 0.00 | 0.00 | 0.00 | 67 | 1015.4 |
| 20260502002927 | 61 | 155 | 2.0 | 5.0 | 0.00 | 0.00 | 0.00 | 67 | 1015.6 |
| 20260502002439 | 61 | 175 | 2.0 | 5.0 | 0.00 | 0.00 | 0.00 | 68 | 1015.5 |
| 20260502001940 | 61 | 252 | 2.0 | 6.0 | 0.00 | 0.00 | 0.00 | 67 | 1015.5 |
| 20260502001526 | 61 | 258 | 2.0 | 6.0 | 0.00 | 0.00 | 0.00 | 67 | 1015.0 |
| 20260502001431 | 61 | 221 | 3.0 | 6.0 | 0.00 | 0.00 | 0.00 | 67 | 1015.2 |
| 20260502001002 | 62 | 183 | 2.0 | 5.0 | 0.00 | 0.00 | 0.00 | 67 | 1015.0 |
| 20260502000450 | 62 | 211 | 2.0 | 5.0 | 0.00 | 0.00 | 0.00 | 65 | 1014.9 |
| 20260502000101 | 62 | 255 | 2.0 | 5.0 | 0.00 | 0.00 | 0.00 | 63 | 1014.3 |
| 20260501235930 | 63 | 211 | 1.0 | 5.0 | 0.00 | 0.00 | 0.00 | 63 | 1014.6 |
| 20260501235422 | 63 | 217 | 0.0 | 2.0 | 0.00 | 0.00 | 0.00 | 60 | 1014.5 |
| 20260501234950 | 63 | 273 | 0.0 | 2.0 | 0.00 | 0.00 | 0.00 | 58 | 1014.3 |
| 20260501234541 | 63 | 273 | 0.0 | 2.0 | 0.00 | 0.00 | 0.00 | 57 | 1013.9 |
| 20260501234438 | 63 | 273 | 0.0 | 2.0 | 0.00 | 0.00 | 0.00 | 57 | 1014.1 |
| 20260501234010 | 63 | 37 | 0.0 | 2.0 | 0.00 | 0.00 | 0.00 | 57 | 1014.1 |
| 20260501233431 | 63 | 37 | 0.0 | 1.0 | 0.00 | 0.00 | 0.00 | 58 | 1014.2 |
| 20260501233028 | 63 | 58 | 0.0 | 1.0 | 0.00 | 0.00 | 0.00 | 58 | 1013.9 |
| 20260501232923 | 63 | 58 | 0.0 | 1.0 | 0.00 | 0.00 | 0.00 | 58 | 1014.2 |
| 20260501232453 | 63 | 58 | 0.0 | 1.0 | 0.00 | 0.00 | 0.00 | 58 | 1014.0 |
| 20260501232004 | 64 | 58 | 0.0 | 1.0 | 0.00 | 0.00 | 0.00 | 57 | 1014.0 |
| 20260501231637 | 63 | 56 | 0.0 | 1.0 | 0.00 | 0.00 | 0.00 | 59 | 1013.7 |
| 20260501231424 | 64 | 61 | 0.0 | 1.0 | 0.00 | 0.00 | 0.00 | 58 | 1013.9 |
| 20260501230936 | 64 | 61 | 0.0 | 1.0 | 0.00 | 0.00 | 0.00 | 60 | 1013.7 |
| 20260501230448 | 64 | 61 | 0.0 | 2.0 | 0.00 | 0.00 | 0.00 | 58 | 1013.8 |
| 20260501230106 | 63 | 61 | 0.0 | 2.0 | 0.00 | 0.00 | 0.00 | 58 | 1013.4 |
| 20260501225943 | 64 | 61 | 0.0 | 3.0 | 0.00 | 0.00 | 0.00 | 59 | 1013.7 |
| 20260501225428 | 63 | 61 | 1.0 | 4.0 | 0.00 | 0.00 | 0.00 | 57 | 1013.5 |
| 20260501224939 | 64 | 42 | 3.0 | 4.0 | 0.00 | 0.00 | 0.00 | 59 | 1013.3 |
| 20260501224532 | 63 | 58 | 1.0 | 3.0 | 0.00 | 0.00 | 0.00 | 57 | 1013.3 |
| 20260501224430 | 64 | 56 | 1.0 | 3.0 | 0.00 | 0.00 | 0.00 | 57 | 1013.6 |